CYZYCYYD

Guest
Details From CYZY - MACKENZIE
To CYYD - SMITHERS
Flight Number -
Tags generated
Created
Modified
Stats Distance 195 nm / 360 km
Max Altitude 24,700 ft / 7,529 m
Waypoints 4
Social Downloads 0
Likes 0
Share VATSIM

Download

Looking for another format? Having issues loading an existing format? Contact us
Advertisement - Login to hide

Notes

Basic altitude profile: - Ascent Rate: 2500ft/min - Ascent Speed: 250kts - Cruise Altitude: 35000ft - Cruise Speed: 420kts - Descent Rate: 1500ft/min - Descent Speed: 250kts Options: - Use NATs: yes - Use PACOTS: yes - Use low airways: yes - Use high airways: yes

Route

CYZY DAVON V301 YYD CYYD

ID Type Via Altitude Latitude Longitude Leg Dist Tot Dist Heading (true) Name
O CYZY APT - 0 ft / 0 m 55.30431˚ -123.13209˚ - 0 nm - MACKENZIE
DAVON FIX - 24,700 ft / 7,529 m 54.15128˚ -124.23978˚ 79 nm 79 nm 209° / 209° -
YYD VOR V301 (AWY-LO) 7,900 ft / 2,408 m 54.45233˚ -126.65089˚ 86 nm 165 nm 283° / 281° HOUSTON VOR-DME
O CYYD APT - 0 ft / 0 m 54.82481˚ -127.18259˚ 29 nm 194 nm 321° / 320° SMITHERS

Altitude Profile

Advertisement - Login to hide

Weather


0- 5 10 15 20 25 30 35+ Temperature / ° C

Clouds and Precipitation
Forecast for 2018-05-22 06:00 UTC. Updated 2 hours ago

Ground ~20,000 ft ~40,000 ft Winds

CYZY

Details ICAO CYZY (YZY)
Name MACKENZIE
Region Canada
Timezone America/Vancouver (UTC-7.0)
Stats Elevation 2,264 ft / 690 m (AMSL)
Location 55.304305° -123.132085°
Runways 1
Magnetic Variation 17.747° E

METAR

CYZY 220600Z AUTO VRB02KT 9SM CLR 09/04 A2993 RMK SLP147

Decode

TAF

TAF CYZY 220638Z 2207/2209 VRB03KT P6SM FEW100 SCT220 RMK FCST BASED ON AUTO OBS. NXT FCST WILL BE ISSUED AT 221445Z

Decode

Departure Runways

ID Width Length Bearing (true) Bearing (mag) Surface Threshold Offset Overrun Length
16 100 ft / 30 m 4,994 ft / 1,522 m 185.95° 168.20° Asphalt 0 ft / 0 m 0 ft / 0 m
34 100 ft / 30 m 4,994 ft / 1,522 m 5.95° 348.20° Asphalt 0 ft / 0 m 0 ft / 0 m

CYYD

Details ICAO CYYD (YYD)
Name SMITHERS
Region Canada
Timezone America/Vancouver (UTC-7.0)
Stats Elevation 1,712 ft / 522 m (AMSL)
Location 54.824812° -127.182587°
Runways 1
Magnetic Variation 18.150° E

METAR

CYYD 220600Z AUTO 25006KT 9SM BKN075 12/07 A2993 RMK SLP144

Decode

TAF

TAF CYYD 220038Z 2201/2206 18008KT P6SM BKN070 BECMG 2202/2204 24008KT RMK NXT FCST WILL BE ISSUED AT 221345Z

Decode

Destination Runways

ID Width Length Bearing (true) Bearing (mag) Surface Threshold Offset Overrun Length
15 150 ft / 46 m 4,992 ft / 1,521 m 171.00° 152.85° Asphalt 0 ft / 0 m 0 ft / 0 m
33 150 ft / 46 m 4,992 ft / 1,521 m 351.01° 332.86° Asphalt 0 ft / 0 m 0 ft / 0 m